Location: Allentsteig
(48.6833°N, 15.3167°E)
Time: 21:30:16
(UTC+00:00)

USA 238 DEB - Pass Details

Date: 26 January 2021
Orbit: 995 x 1217 km, 63.4° (Epoch: 07 March)

Event Time Altitude Azimuth Distance (km) Brightness Sun altitude
Rises 02:58:59 0° 164° (SSE) 3,712 6.6 -35.6°
Reaches altitude 10° 03:02:30 10° 145° (SE) 2,788 6.1 -35.0°
Maximum altitude 03:06:30 17° 107° (ESE) 2,337 6.0 -34.4°
Drops below altitude 10° 03:10:36 10° 69° (ENE) 2,871 6.7 -33.7°
Sets 03:14:16 0° 51° (NE) 3,873 7.4 -33.1°
